Showing default

COSMOS 2167, 21781

Orbit data source: Space-Track

COSMOS 2167, 21781 is a payload satellite owned by UNKS RF (CIS) in LEO that was launched on Tue, 12 Nov 1991 UTC via a TSIKLON-3 launch vehicle from the Plesetsk Missile And Space Complex (PKMTR). Payload-class satellites include a variety of spacecraft equipped with specific instruments for various scientific and technological missions. These include communications satellites like Starlink; space stations such as the ISS; scientific satellites like the Hubble; Earth observation satellites from companies like Planet Labs, Umbra, and HawkEye 360; GPS; miniature CubeSats for education and research; and military/defense satellites.

Loading next visibility...
Identifier
21781, 1991-077C
Orbit
LEO
Last TLE update
19 hours ago
Origin
Manufacturer
NPO PM
Mission
Defense Communications
Bus & Motor
STRELA-3, Unknown motor
Mass
225 kg wet, 225 kg dry
Launch date (UTC)
1991-11-12 (33 years ago)
Launch vehicle
TSIKLON-3
Launch site
Plesetsk Missile And Space Complex (PKMTR)
Object type
Payload
Rocket body
Debris
Shape & HBR
Cyl, 1.6 m
Radar Cross Section
1.257 m², Large (>1 m²)

Expand to show TLE details & history

TLE from 19 hours ago
0 COSMOS 2167
1 21781U 91077C   25128.55734670  .00000041  00000-0  16482-3 0  9997
2 21781  82.6022 138.9368 0005571 285.1678 194.9467 12.64277092544816
Epoch: 2025-05-08T13:22Z
Definitive object data (Epoch: 2025-05-08T13:22:34.754Z)
Latitude
59.17816°
Longitude
-120.84021°
Altitude
1,419.513 km
Speed
7.155 km/s
True Right ascension
20h 25m 43s
True Declination
59° 02' 22"
Sunlit
Object was in daylight at TLE epoch
Visualization TLE readout
Latitude
-30.56759°
Longitude
-104.47548°
Altitude
1,415.349 km
Speed
7.153 km/s
Apparent Right ascension
00h 23m 11s
Apparent Declination
-50° 19' 14"
Sunlit
Object is in daylight
Visualization observer readout
Local Sidereal Time
17:00:02
Azimuth
126.697° SE
Elevation
-41.885°
Doppler factor
1
Orbital elements
Apogee altitude
1,406.992 km
Perigee altitude
1,398.323 km
Semi-major axis
7,780.794 km
Eccentricity
0.0005571
Inclination
82.6022°
RAAN
138.9368°
Arg. of periapsis
285.1678°
True anomaly
194.93025°
Mean anomaly
194.9467°
Eccentric anomaly
194.93847°
Mean motion
3.16233 °/min
BSTAR
0.00016482
Orbital period
113.84 mins
Loading maneuver chart data...
Loading SW <> Apogee altitude chart data...
Loading historical data...
Loading historical data...
Loading historical data...
Loading historical data...
Loading historical data...
Loading historical data...
Loading historical data...

COSMOS 2167 Visibility forecast

Observer location: undefined°, undefined°

Span
Click to sort rows by Start time (UTC) header in descending order
Start Az.
Max El. time (UTC)
Max El. Az.
Max El.
End time (UTC)
End Az.
5 mins2025-05-09 10:16:48.381Z39.006° NE2025-05-09 10:19:48.381Z60.835° ENE11.76°2025-05-09 10:21:48.381Z75.414° E
15 mins2025-05-09 12:08:48.381Z358.857° N2025-05-09 12:15:48.381Z69.326° E42.642°2025-05-09 12:23:48.381Z161.83° S
10 mins2025-05-09 14:05:48.381Z316.676° NNW2025-05-09 14:09:48.381Z281.656° WNW22.03°2025-05-09 14:15:48.381Z232.256° WSW
14 mins2025-05-10 00:55:48.381Z170.386° S2025-05-10 01:02:48.381Z74.65° E42.434°2025-05-10 01:09:48.381Z13.772° NNE
11 mins2025-05-10 02:52:48.381Z247.966° W2025-05-10 02:57:48.381Z291.9° WNW22.912°2025-05-10 03:03:48.381Z341.879° N
|